South St. Paul, MN

8:28 AM CDT on May 26, 2017 (GMT -0500)
South Saint Paul Municipal-Fleming

Weather History for KSGS - April, 2013

Change the Weather History Date:

Monday, April 8, 2013

  Actual Average (KSTP) Record (KSTP)
Temperature  
Mean Temperature 43 °F -  
Max Temperature 46 °F 53 °F 70 °F (2005)
Min Temperature 40 °F 34 °F 19 °F (2003)
Degree Days  
Heating Degree Days 22    
Moisture  
Dew Point 39 °F    
Average Humidity 88    
Maximum Humidity 98    
Minimum Humidity 78    
Precipitation  
Precipitation 0.29 in - - ()
Sea Level Pressure  
Sea Level Pressure 29.81 in    
Wind  
Wind Speed 5 mph (NE)    
Max Wind Speed 10 mph    
Max Gust Speed 16 mph    
Visibility 7 miles    
Events Rain    
Averages and records for this station are not official NWS values.
T = Trace of Precipitation, MM = Missing Value Source: NWS Daily Summary

Daily Weather History Graph

Daily Weather History Graph

Search for Another Location

Airport or City:

Trip Planner

Search our weather history database for the weather conditions in past years. The results will help you decide how hot, cold, wet, or windy it might be!

Date:

Astronomy

Apr. 08, 2013 Rise Set
Actual Time 6:39 AM CDT 7:48 PM CDT
Civil Twilight 6:09 AM CDT 8:19 PM CDT
Nautical Twilight 5:33 AM CDT 8:55 PM CDT
Astronomical Twilight 4:55 AM CDT 9:33 PM CDT
Moon 5:33 AM CDT (4/8) 6:21 PM CDT (4/8)
Length of Visible Light 14h 09m
Length of Day
13h 09m
Waning Crescent, 3% of the Moon is Illuminated
Apr 8
Waning Crescent
Apr 10
New
Apr 18
First Quarter
Apr 25
Full
May 2
Last Quarter

Hourly Weather History & Observations

Time (CDT) Temp. Windchill Dew Point Humidity Pressure Visibility Wind Dir Wind Speed Gust Speed Precip Events Conditions
12:12 AM 41.5 °F 37.8 °F 38.8 °F 90% 29.75 in 4.0 mi SE 5.8 mph - 0.03 in Rain Light Rain
12:32 AM 41.4 °F 36.8 °F 39.2 °F 92% 29.75 in 4.0 mi SE 6.9 mph - 0.08 in Rain Light Rain
12:53 AM 41.9 °F 38.2 °F 40.1 °F 93% 29.75 in 4.0 mi SSE 5.8 mph - 0.11 in Rain Light Rain
1:12 AM 41.9 °F 36.3 °F 40.1 °F 93% 29.73 in 4.0 mi SE 9.2 mph - 0.02 in Rain Light Rain
1:32 AM 41.9 °F 40.0 °F 40.5 °F 95% 29.74 in 5.0 mi South 3.5 mph - 0.03 in Rain Light Rain
1:53 AM 41.9 °F - 41.0 °F 97% 29.73 in 4.0 mi Calm Calm - 0.06 in Rain Light Rain
2:12 AM 42.3 °F 38.6 °F 41.4 °F 97% 29.72 in 3.0 mi NNE 5.8 mph - 0.02 in Rain Light Rain
2:33 AM 42.3 °F 40.5 °F 41.4 °F 97% 29.72 in 3.0 mi North 3.5 mph - 0.03 in Rain Rain
2:53 AM 42.3 °F - 41.5 °F 97% 29.72 in 5.0 mi Calm Calm - 0.03 in   Light Drizzle
3:12 AM 41.9 °F 39.0 °F 41.2 °F 97% 29.74 in 4.0 mi North 4.6 mph - N/A   Overcast
3:33 AM 41.5 °F 38.6 °F 41.0 °F 98% 29.72 in 3.0 mi NE 4.6 mph - 0.03 in Rain Light Rain
3:52 AM 41.2 °F 39.2 °F 40.5 °F 97% 29.71 in 2.0 mi NE 3.5 mph - 0.08 in Rain Light Rain
4:13 AM 41.2 °F 38.2 °F 40.5 °F 97% 29.71 in 4.0 mi NE 4.6 mph - N/A   Overcast
4:32 AM 41.0 °F 39.0 °F 40.1 °F 97% 29.70 in 4.0 mi ENE 3.5 mph - N/A Rain Light Rain
4:52 AM 41.0 °F - 40.5 °F 98% 29.71 in 5.0 mi Calm Calm - 0.01 in Rain Light Rain
5:13 AM 41.2 °F - 40.5 °F 97% 29.70 in 4.0 mi Calm Calm - N/A Rain Light Rain
5:32 AM 41.0 °F 38.0 °F 40.1 °F 97% 29.68 in 4.0 mi ESE 4.6 mph - N/A   Overcast
5:52 AM 41.4 °F 37.6 °F 40.8 °F 98% 29.68 in 7.0 mi ESE 5.8 mph - N/A   Overcast
6:12 AM 41.2 °F 37.3 °F 40.3 °F 97% 29.69 in 7.0 mi East 5.8 mph - N/A   Overcast
6:32 AM 40.8 °F 36.9 °F 39.4 °F 95% 29.69 in 7.0 mi East 5.8 mph - N/A   Overcast
6:53 AM 40.1 °F 38.0 °F 38.3 °F 93% 29.70 in 7.0 mi ESE 3.5 mph - N/A   Mostly Cloudy
7:13 AM 40.1 °F 36.9 °F 37.9 °F 92% 29.70 in 7.0 mi ESE 4.6 mph - N/A   Scattered Clouds
7:32 AM 40.1 °F 38.0 °F 37.9 °F 92% 29.71 in 7.0 mi SE 3.5 mph - N/A   Scattered Clouds
7:53 AM 40.1 °F - 38.3 °F 93% 29.72 in 5.0 mi Calm Calm - N/A   Mostly Cloudy
8:12 AM 40.3 °F - 38.3 °F 93% 29.72 in 5.0 mi Calm Calm - N/A   Overcast
8:33 AM 40.3 °F - 38.1 °F 92% 29.73 in 5.0 mi Calm Calm - N/A   Overcast
8:52 AM 40.6 °F - 38.3 °F 91% 29.74 in 5.0 mi Calm Calm - N/A   Overcast
9:12 AM 40.5 °F - 38.3 °F 92% 29.74 in 5.0 mi Calm Calm - N/A   Overcast
9:33 AM 40.6 °F 38.6 °F 38.3 °F 91% 29.74 in 5.0 mi ENE 3.5 mph - N/A   Overcast
9:52 AM 41.0 °F - 38.3 °F 90% 29.75 in 5.0 mi Calm Calm - N/A   Overcast
10:12 AM 41.2 °F 38.2 °F 38.5 °F 90% 29.75 in 7.0 mi ENE 4.6 mph - N/A   Overcast
10:33 AM 41.9 °F - 38.8 °F 89% 29.75 in 7.0 mi Calm Calm - N/A   Overcast
10:52 AM 42.3 °F - 38.8 °F 88% 29.76 in 7.0 mi Calm Calm - N/A   Overcast
11:12 AM 42.4 °F 39.6 °F 39.0 °F 88% 29.77 in 7.0 mi North 4.6 mph - N/A   Overcast
11:32 AM 42.8 °F 41.1 °F 38.8 °F 86% 29.77 in 7.0 mi NNE 3.5 mph - N/A   Mostly Cloudy
11:53 AM 43.3 °F - 39.2 °F 85% 29.78 in 7.0 mi Calm Calm - N/A   Mostly Cloudy
12:13 PM 43.7 °F 42.1 °F 39.2 °F 84% 29.78 in 7.0 mi North 3.5 mph - N/A   Mostly Cloudy
12:32 PM 44.1 °F 42.5 °F 39.4 °F 84% 29.78 in 7.0 mi NNE 3.5 mph - N/A   Mostly Cloudy
12:53 PM 44.2 °F 42.7 °F 39.2 °F 82% 29.79 in 7.0 mi NE 3.5 mph - N/A   Mostly Cloudy
1:12 PM 44.1 °F - 39.2 °F 83% 29.80 in 7.0 mi Calm Calm - N/A   Mostly Cloudy
1:33 PM 44.6 °F 42.2 °F 39.4 °F 82% 29.80 in 7.0 mi ENE 4.6 mph - N/A   Mostly Cloudy
1:53 PM 44.8 °F 42.4 °F 39.4 °F 81% 29.81 in 7.0 mi North 4.6 mph - N/A   Mostly Cloudy
2:12 PM 45.7 °F 42.7 °F 39.6 °F 79% 29.81 in 7.0 mi North 5.8 mph - N/A   Overcast
2:33 PM 45.7 °F 42.7 °F 39.6 °F 79% 29.82 in 7.0 mi NNE 5.8 mph - N/A   Overcast
2:52 PM 45.9 °F 42.3 °F 39.7 °F 79% 29.82 in 7.0 mi North 6.9 mph - N/A   Mostly Cloudy
3:13 PM 45.7 °F 42.0 °F 39.6 °F 79% 29.82 in 7.0 mi North 6.9 mph - N/A   Mostly Cloudy
3:33 PM 46.0 °F 42.5 °F 39.7 °F 79% 29.81 in 7.0 mi NNE 6.9 mph - N/A   Overcast
3:53 PM 46.0 °F 42.5 °F 39.6 °F 78% 29.81 in 7.0 mi NNE 6.9 mph - N/A   Overcast
4:13 PM 46.4 °F 42.9 °F 39.7 °F 78% 29.82 in 7.0 mi ENE 6.9 mph - N/A   Overcast
4:32 PM 46.0 °F 43.9 °F 39.6 °F 78% 29.84 in 7.0 mi NE 4.6 mph - N/A   Overcast
4:53 PM 46.2 °F 43.3 °F 39.6 °F 78% 29.85 in 7.0 mi NNE 5.8 mph - N/A   Overcast
5:13 PM 46.0 °F 43.1 °F 39.7 °F 79% 29.87 in 7.0 mi NE 5.8 mph - N/A   Overcast
5:32 PM 45.7 °F 43.4 °F 39.6 °F 79% 29.89 in 7.0 mi NE 4.6 mph - N/A   Overcast
5:53 PM 45.7 °F 42.7 °F 39.6 °F 79% 29.89 in 7.0 mi NNE 5.8 mph - N/A   Overcast
6:12 PM 45.5 °F 40.8 °F 39.6 °F 80% 29.88 in 7.0 mi NNE 9.2 mph - N/A   Overcast
6:32 PM 45.1 °F 40.3 °F 39.6 °F 81% 29.91 in 7.0 mi NNE 9.2 mph - N/A   Overcast
6:53 PM 45.0 °F 41.8 °F 39.7 °F 82% 29.92 in 10.0 mi North 5.8 mph - N/A   Overcast
7:12 PM 45.0 °F 40.6 °F 39.6 °F 81% 29.94 in 10.0 mi North 8.1 mph - N/A   Overcast
7:33 PM 44.6 °F 39.2 °F 39.6 °F 82% 29.95 in 10.0 mi NNE 10.4 mph - N/A   Overcast
7:53 PM 43.7 °F 39.1 °F 39.4 °F 85% 29.96 in 10.0 mi North 8.1 mph - N/A   Overcast
8:13 PM 42.8 °F 37.0 °F 39.2 °F 87% 29.97 in 10.0 mi North 10.4 mph - N/A   Overcast
8:32 PM 42.3 °F 36.8 °F 38.8 °F 88% 29.98 in 10.0 mi North 9.2 mph - N/A   Overcast
8:52 PM 42.1 °F 36.1 °F 38.7 °F 88% 29.98 in 10.0 mi NNE 10.4 mph - N/A   Overcast
9:13 PM 41.9 °F 35.9 °F 38.7 °F 88% 29.99 in 10.0 mi NNE 10.4 mph - N/A   Overcast
9:32 PM 41.5 °F 35.9 °F 38.7 °F 89% 29.99 in 10.0 mi NNE 9.2 mph 16.1 mph N/A   Overcast
9:52 PM 41.5 °F 35.9 °F 38.5 °F 89% 30.00 in 10.0 mi NE 9.2 mph - N/A   Overcast
10:13 PM 41.4 °F 38.4 °F 38.3 °F 89% 30.02 in 10.0 mi NE 4.6 mph - N/A   Overcast
10:32 PM 41.2 °F 38.2 °F 37.9 °F 88% 30.02 in 10.0 mi ENE 4.6 mph - N/A   Overcast
10:53 PM 41.2 °F 39.2 °F 37.8 °F 88% 30.03 in 10.0 mi NE 3.5 mph - N/A   Overcast
11:13 PM 41.0 °F 38.0 °F 37.8 °F 88% 30.03 in 10.0 mi NE 4.6 mph - N/A   Overcast
11:32 PM 41.2 °F 36.0 °F 37.4 °F 86% 30.03 in 10.0 mi NNE 8.1 mph - N/A   Overcast
11:53 PM 41.0 °F 36.4 °F 37.2 °F 86% 30.03 in 10.0 mi NNE 6.9 mph - N/A   Overcast